{"data":{"norad_id":42842,"epoch":"2026-09-19T23:05:27.638880Z","epoch_age_seconds":60762,"freshness":"FRESH","line1":"1 42842U 17042T   26262.96212545  .00011725  00000+0  37018-3 0  9993","line2":"2 42842  97.3850  84.2020 0007032  47.4728 312.7107 15.32972267502859","mean_motion":15.32972267,"eccentricity":0.0007032,"inclination_deg":97.385,"raan_deg":84.202,"arg_perigee_deg":47.4728,"mean_anomaly_deg":312.7107,"bstar":0.00037018,"rev_number":50285,"period_min":93.935163146692,"perigee_km":462.13659150809,"apogee_km":471.76352194467,"semimajor_km":6845.0870567264,"source":"CELESTRAK","updated_at":"2026-09-20T09:00:34.868462Z"}}